Randolph AFB, TX

3:40 AM CDT on July 27, 2017 (GMT -0500)
Randolph Air Force Base

Weather History for KRND - April, 2014

Change the Weather History Date:

Monday, April 7, 2014

  Actual Average Record
Temperature  
Mean Temperature 60 °F -  
Max Temperature 75 °F 74 °F 95 °F (2006)
Min Temperature 48 °F 55 °F 34 °F (2007)
Degree Days  
Heating Degree Days 4    
Growing Degree Days 10 (Base 50)    
Moisture  
Dew Point 50 °F    
Average Humidity 72    
Maximum Humidity 94    
Minimum Humidity 38    
Precipitation  
Precipitation 0.00 in - - ()
Sea Level Pressure  
Sea Level Pressure 29.90 in    
Wind  
Wind Speed 7 mph (NNW)    
Max Wind Speed 29 mph    
Max Gust Speed 36 mph    
Visibility 9 miles    
Events Rain , Thunderstorm    
Averages and records for this station are not official NWS values.
T = Trace of Precipitation, MM = Missing Value Source: NWS Daily Summary

Daily Weather History Graph

Daily Weather History Graph

Search for Another Location

Airport or City:

Trip Planner

Search our weather history database for the weather conditions in past years. The results will help you decide how hot, cold, wet, or windy it might be!

Date:

Astronomy

Apr. 07, 2014 Rise Set
Actual Time 7:15 AM CDT 7:55 PM CDT
Civil Twilight 6:51 AM CDT 8:19 PM CDT
Nautical Twilight 6:23 AM CDT 8:47 PM CDT
Astronomical Twilight 5:54 AM CDT 9:16 PM CDT
Moon 1:24 PM CDT (4/7) 2:21 AM CDT (4/7)
Length of Visible Light 13h 27m
Length of Day
12h 39m
First Quarter, 53% of the Moon is Illuminated
Apr 7
First Quarter
Apr 15
Full
Apr 22
Last Quarter
Apr 29
New
May 6
First Quarter

Hourly Weather History & Observations

Time (CDT) Temp. Dew Point Humidity Pressure Visibility Wind Dir Wind Speed Gust Speed Precip Events Conditions
12:58 AM 49.5 °F 46.0 °F 88% 29.83 in 10.0 mi East 3.5 mph - N/A   Clear
1:58 AM 48.4 °F 44.4 °F 86% 29.84 in 10.0 mi West 1.2 mph - N/A   Clear
2:58 AM 48.7 °F 46.6 °F 92% 29.84 in 10.0 mi North 4.6 mph - N/A   Overcast
3:58 AM 49.8 °F 47.3 °F 91% 29.83 in 10.0 mi Calm Calm - N/A   Overcast
4:23 AM 50.0 °F 48.2 °F 94% 29.82 in 10.0 mi NNW 3.5 mph - N/A   Overcast
5:21 AM 50.0 °F 48.2 °F 94% 29.82 in 10.0 mi North 1.2 mph - N/A   Overcast
5:55 AM 50.0 °F 48.2 °F 94% 29.82 in 0.2 mi North - - N/A   Overcast
5:58 AM 50.4 °F 47.3 °F 89% 29.82 in 10.0 mi NNE 5.8 mph - N/A   Overcast
6:58 AM 50.9 °F 47.3 °F 87% 29.87 in 10.0 mi NNE 4.6 mph - N/A   Overcast
7:58 AM 51.3 °F 47.8 °F 88% 29.91 in 10.0 mi NW 5.8 mph - N/A   Overcast
8:38 AM 51.8 °F 48.2 °F 88% 29.92 in 10.0 mi North 9.2 mph - N/A   Mostly Cloudy
8:58 AM 52.5 °F 48.2 °F 85% 29.92 in 10.0 mi North 9.2 mph - N/A   Mostly Cloudy
9:58 AM 54.1 °F 48.4 °F 81% 29.92 in 10.0 mi North 10.4 mph - N/A   Mostly Cloudy
10:11 AM 57.2 °F 48.2 °F 72% 29.91 in 10.0 mi NNE 8.1 mph - N/A   Scattered Clouds
10:58 AM 60.4 °F 49.5 °F 67% 29.91 in 10.0 mi NNE 8.1 mph - N/A   Clear
11:58 AM 65.3 °F 49.8 °F 57% 29.91 in 10.0 mi NNE 8.1 mph - N/A   Clear
12:58 PM 69.4 °F 50.7 °F 51% 29.89 in 10.0 mi Variable 3.5 mph - N/A   Clear
1:58 PM 71.6 °F 50.4 °F 47% 29.89 in 8.0 mi ENE 4.6 mph - N/A   Partly Cloudy
2:58 PM 73.6 °F 49.8 °F 43% 29.84 in 10.0 mi Variable 1.2 mph - N/A   Clear
3:25 PM 73.4 °F 46.4 °F 38% 29.85 in 10.0 mi ENE 3.5 mph - N/A   Scattered Clouds
3:42 PM 71.6 °F 48.2 °F 43% 29.87 in 10.0 mi West 16.1 mph 20.7 mph N/A Rain , Thunderstorm Light Thunderstorms and Rain
3:46 PM 68.0 °F 51.8 °F 56% 29.87 in 5.0 mi West 18.4 mph 28.8 mph N/A Rain , Thunderstorm Heavy Thunderstorms and Rain
3:47 PM 68.0 °F 51.8 °F 56% 29.88 in 3.0 mi West 28.8 mph 35.7 mph N/A Rain , Thunderstorm Heavy Thunderstorms and Rain
3:50 PM 64.4 °F 51.8 °F 64% 29.89 in 2.8 mi West 20.7 mph 35.7 mph N/A Rain , Thunderstorm Heavy Thunderstorms and Rain
3:51 PM 62.6 °F 51.8 °F 68% 29.89 in 1.2 mi West 23.0 mph 35.7 mph N/A Rain , Thunderstorm Heavy Thunderstorms and Rain
3:53 PM 62.6 °F 51.8 °F 68% 29.89 in 1.0 mi WNW 19.6 mph 35.7 mph N/A Rain , Thunderstorm Heavy Thunderstorms and Rain
3:58 PM 60.8 °F 46.4 °F 59% 29.90 in 3.0 mi NW 16.1 mph 35.7 mph 0.00 in Rain , Thunderstorm Light Thunderstorms and Rain
4:03 PM 62.6 °F 48.2 °F 59% 29.90 in 5.0 mi NNW 9.2 mph 25.3 mph N/A Rain , Thunderstorm Light Thunderstorms and Rain
4:11 PM 60.8 °F 51.8 °F 72% 29.92 in 10.0 mi SW 10.4 mph - N/A Rain , Thunderstorm Light Thunderstorms and Rain
4:17 PM 60.8 °F 51.8 °F 72% 29.94 in 10.0 mi West 8.1 mph - N/A Rain , Thunderstorm Light Thunderstorms and Rain
4:31 PM 60.8 °F 51.8 °F 72% 29.94 in 9.0 mi NW 5.8 mph - N/A Rain , Thunderstorm Thunderstorms and Rain
4:32 PM 59.0 °F 51.8 °F 77% 29.94 in 9.0 mi NW 5.8 mph - N/A Rain Rain
4:33 PM 59.0 °F 51.8 °F 77% 29.94 in 9.0 mi NW 5.8 mph - N/A Rain , Thunderstorm Light Thunderstorms and Rain
4:48 PM 59.0 °F 53.6 °F 82% 29.91 in 9.0 mi NE 2.3 mph - N/A Rain Light Rain
4:58 PM 58.6 °F 54.3 °F 86% 29.88 in 10.0 mi SE 10.4 mph - 0.00 in Rain Light Rain
5:01 PM 59.0 °F 53.6 °F 82% 29.86 in 10.0 mi East 12.7 mph - N/A Rain Light Rain
5:13 PM 60.8 °F 53.6 °F 77% 29.86 in 10.0 mi East 4.6 mph - N/A Rain Light Rain
5:14 PM 60.8 °F 53.6 °F 77% 29.85 in 10.0 mi East 4.6 mph - N/A   Mostly Cloudy
5:58 PM 64.8 °F 50.9 °F 61% 29.88 in 10.0 mi ESE 5.8 mph - 0.00 in   Clear
6:58 PM 65.8 °F 50.9 °F 58% 29.88 in 10.0 mi Variable 2.3 mph - N/A   Clear
7:44 PM 64.4 °F 51.8 °F 64% 29.95 in 10.0 mi NNW 12.7 mph 23.0 mph N/A   Scattered Clouds
7:58 PM 63.0 °F 49.3 °F 61% 29.94 in 10.0 mi North 9.2 mph - N/A   Partly Cloudy
8:58 PM 57.6 °F 46.0 °F 65% 29.98 in 10.0 mi North 10.4 mph - N/A   Clear
9:58 PM 53.6 °F 46.9 °F 78% 30.04 in 10.0 mi NW 10.4 mph - N/A   Clear
10:58 PM 52.9 °F 47.1 °F 81% 30.03 in 10.0 mi NNW 8.1 mph - N/A   Clear
11:58 PM 51.4 °F 45.9 °F 81% 30.06 in 10.0 mi WNW 5.8 mph - N/A   Clear